AUR87DB EIDW-EGJB

Flight info

Callsign AUR87DB
Flight time 1h 15m
Altitude 19000
Route PESIT2Q PESIT DCT BAKUR N24 ADHAV DCT ABBEW N90 ENHEL N862 SKERY
Aircraft AT76/M-SDFGIRY/S

Departure

Time 2026-04-24 21:19
Airport Dublin Airport (EIDW)

Arrival

Time 2026-04-24 22:34
Airport Guernsey Airport (EGJB)
Time Latitude Longitude Altitude Speed Heading
2026-04-24 20:40 53.42771 -6.24740 207 ft 0 kts
2026-04-24 21:05 53.42748 -6.24741 207 ft 3 kts
2026-04-24 21:05 53.42729 -6.24741 207 ft 4 kts 320°
2026-04-24 21:05 53.42723 -6.24711 210 ft 4 kts 252°
2026-04-24 21:06 53.42718 -6.24732 207 ft 3 kts 249°
2026-04-24 21:06 53.42717 -6.24736 207 ft 0 kts 249°
2026-04-24 21:10 53.42716 -6.24738 207 ft 1 kts 248°
2026-04-24 21:10 53.42699 -6.24786 213 ft 8 kts 235°
2026-04-24 21:11 53.42665 -6.24867 207 ft 8 kts 243°
2026-04-24 21:11 53.42686 -6.24948 211 ft 10 kts 327°
2026-04-24 21:11 53.42749 -6.25014 209 ft 11 kts 328°
2026-04-24 21:11 53.42793 -6.25112 207 ft 11 kts 276°
2026-04-24 21:12 53.42791 -6.25256 207 ft 13 kts 244°
2026-04-24 21:12 53.42732 -6.25358 208 ft 12 kts 226°
2026-04-24 21:12 53.42669 -6.25466 208 ft 15 kts 225°
2026-04-24 21:12 53.42592 -6.25598 207 ft 17 kts 226°
2026-04-24 21:13 53.42514 -6.25733 207 ft 17 kts 224°
2026-04-24 21:13 53.42429 -6.25875 214 ft 18 kts 226°
2026-04-24 21:13 53.42353 -6.26005 212 ft 16 kts 226°
2026-04-24 21:13 53.42282 -6.26152 209 ft 16 kts 243°
2026-04-24 21:14 53.42269 -6.26343 207 ft 17 kts 274°
2026-04-24 21:14 53.42280 -6.26545 216 ft 18 kts 275°
2026-04-24 21:14 53.42292 -6.26754 207 ft 18 kts 275°
2026-04-24 21:14 53.42303 -6.26970 207 ft 19 kts 275°
2026-04-24 21:15 53.42316 -6.27189 210 ft 18 kts 275°
2026-04-24 21:15 53.42326 -6.27393 207 ft 15 kts 275°
2026-04-24 21:15 53.42337 -6.27578 212 ft 17 kts 276°
2026-04-24 21:15 53.42348 -6.27779 207 ft 18 kts 275°
2026-04-24 21:16 53.42359 -6.27988 207 ft 18 kts 275°
2026-04-24 21:16 53.42371 -6.28203 207 ft 19 kts 276°
2026-04-24 21:16 53.42335 -6.28324 207 ft 11 kts 194°
2026-04-24 21:16 53.42301 -6.28319 208 ft 0 kts 162°
2026-04-24 21:17 53.42299 -6.28318 208 ft 1 kts 160°
2026-04-24 21:17 53.42283 -6.28301 216 ft 4 kts 144°
2026-04-24 21:17 53.42257 -6.28264 209 ft 8 kts 138°
2026-04-24 21:17 53.42204 -6.28168 209 ft 15 kts 122°
2026-04-24 21:18 53.42193 -6.28106 208 ft 0 kts 96°
2026-04-24 21:18 53.42183 -6.27931 208 ft 44 kts 95°
2026-04-24 21:18 53.42137 -6.27082 209 ft 100 kts 95°
2026-04-24 21:18 53.42066 -6.25726 410 ft 123 kts 94°
2026-04-24 21:19 53.41999 -6.24256 896 ft 127 kts 94°
2026-04-24 21:19 53.41952 -6.22785 1476 ft 126 kts 96°
2026-04-24 21:19 53.41885 -6.21256 1663 ft 144 kts 98°
2026-04-24 21:19 53.41775 -6.19441 1710 ft 166 kts 98°
2026-04-24 21:20 53.41517 -6.15520 2435 ft 172 kts 98°
2026-04-24 21:20 53.41410 -6.13525 2901 ft 171 kts 99°
2026-04-24 21:20 53.40900 -6.11815 3252 ft 168 kts 146°
2026-04-24 21:21 53.39796 -6.11241 3701 ft 169 kts 168°
2026-04-24 21:21 53.38645 -6.10791 4090 ft 170 kts 165°
2026-04-24 21:21 53.37489 -6.10320 4444 ft 172 kts 166°
2026-04-24 21:21 53.36319 -6.09868 4818 ft 173 kts 166°
2026-04-24 21:22 53.35144 -6.09420 5167 ft 174 kts 166°
2026-04-24 21:22 53.33958 -6.08963 5502 ft 175 kts 166°
2026-04-24 21:22 53.32766 -6.08505 5842 ft 176 kts 165°
2026-04-24 21:22 53.31567 -6.08049 6184 ft 177 kts 165°
2026-04-24 21:23 53.30362 -6.07589 6518 ft 178 kts 165°
2026-04-24 21:23 53.29151 -6.07124 6833 ft 179 kts 165°
2026-04-24 21:23 53.27935 -6.06658 7136 ft 180 kts 165°
2026-04-24 21:23 53.26711 -6.06190 7441 ft 181 kts 165°
2026-04-24 21:24 53.25483 -6.05723 7744 ft 181 kts 165°
2026-04-24 21:24 53.24265 -6.05258 8043 ft 182 kts 165°
2026-04-24 21:24 53.23024 -6.04785 8340 ft 183 kts 165°
2026-04-24 21:24 53.21779 -6.04309 8629 ft 184 kts 165°
2026-04-24 21:25 53.20532 -6.03833 8928 ft 185 kts 165°
2026-04-24 21:25 53.19278 -6.03358 9223 ft 185 kts 165°
2026-04-24 21:25 53.18015 -6.02878 9518 ft 186 kts 165°
2026-04-24 21:25 53.16748 -6.02396 9806 ft 187 kts 165°
2026-04-24 21:26 53.15477 -6.01912 10090 ft 188 kts 165°
2026-04-24 21:26 53.14201 -6.01426 10347 ft 188 kts 165°
2026-04-24 21:26 53.12919 -6.00943 10597 ft 189 kts 165°
2026-04-24 21:26 53.11636 -6.00456 10853 ft 190 kts 165°
2026-04-24 21:27 53.10350 -5.99967 11111 ft 190 kts 165°
2026-04-24 21:27 53.09052 -5.99474 11341 ft 192 kts 166°
2026-04-24 21:27 53.07746 -5.98984 11594 ft 192 kts 165°
2026-04-24 21:27 53.06440 -5.98490 11844 ft 193 kts 165°
2026-04-24 21:28 53.05130 -5.97992 12096 ft 193 kts 165°
2026-04-24 21:28 53.03817 -5.97494 12341 ft 194 kts 165°
2026-04-24 21:28 53.02498 -5.96999 12584 ft 194 kts 165°
2026-04-24 21:28 53.01179 -5.96501 12826 ft 195 kts 165°
2026-04-24 21:29 52.99853 -5.96000 13077 ft 196 kts 165°
2026-04-24 21:29 52.98524 -5.95501 13323 ft 196 kts 165°
2026-04-24 21:29 52.97193 -5.95000 13558 ft 197 kts 165°
2026-04-24 21:29 52.95855 -5.94495 13805 ft 197 kts 165°
2026-04-24 21:30 52.94514 -5.93989 14038 ft 198 kts 165°
2026-04-24 21:30 52.93172 -5.93486 14243 ft 198 kts 165°
2026-04-24 21:30 52.91824 -5.92980 14441 ft 199 kts 165°
2026-04-24 21:30 52.90473 -5.92472 14632 ft 199 kts 165°
2026-04-24 21:31 52.89118 -5.91962 14831 ft 200 kts 166°
2026-04-24 21:31 52.87760 -5.91453 15034 ft 200 kts 166°
2026-04-24 21:31 52.86396 -5.90945 15223 ft 201 kts 166°
2026-04-24 21:31 52.85024 -5.90428 15401 ft 203 kts 166°
2026-04-24 21:32 52.83661 -5.89920 15570 ft 204 kts 166°
2026-04-24 21:32 52.82262 -5.89394 15754 ft 204 kts 166°
2026-04-24 21:32 52.80869 -5.88875 15932 ft 205 kts 167°
2026-04-24 21:32 52.79477 -5.88357 16105 ft 206 kts 167°
2026-04-24 21:33 52.78098 -5.87841 16263 ft 206 kts 167°
2026-04-24 21:33 52.77151 -5.87486 16384 ft 206 kts 167°
2026-04-24 21:33 52.75274 -5.86788 16598 ft 207 kts 167°
2026-04-24 21:33 52.73887 -5.86270 16752 ft 208 kts 167°
2026-04-24 21:34 52.72476 -5.85745 16918 ft 208 kts 167°
2026-04-24 21:34 52.71060 -5.85220 17094 ft 209 kts 167°
2026-04-24 21:34 52.69642 -5.84692 17271 ft 209 kts 167°
2026-04-24 21:34 52.68217 -5.84163 17433 ft 210 kts 167°
2026-04-24 21:35 52.66788 -5.83633 17594 ft 211 kts 167°
2026-04-24 21:35 52.65358 -5.83101 17749 ft 211 kts 167°
2026-04-24 21:35 52.63923 -5.82571 17903 ft 212 kts 168°
2026-04-24 21:35 52.62485 -5.82036 18051 ft 212 kts 168°
2026-04-24 21:36 52.61037 -5.81501 18159 ft 214 kts 168°
2026-04-24 21:36 52.59578 -5.80961 18301 ft 215 kts 168°
2026-04-24 21:36 52.58154 -5.80242 18415 ft 215 kts 153°
2026-04-24 21:36 52.56835 -5.79055 18493 ft 217 kts 153°
2026-04-24 21:37 52.55507 -5.77885 18609 ft 217 kts 153°
2026-04-24 21:37 52.54173 -5.76714 18716 ft 217 kts 153°
2026-04-24 21:37 52.52837 -5.75547 18824 ft 218 kts 153°
2026-04-24 21:37 52.51499 -5.74380 18930 ft 218 kts 154°
2026-04-24 21:38 52.50174 -5.73225 19021 ft 219 kts 154°
2026-04-24 21:38 52.48819 -5.72050 19110 ft 221 kts 154°
2026-04-24 21:38 52.47448 -5.70862 19165 ft 225 kts 154°
2026-04-24 21:38 52.46050 -5.69651 19186 ft 229 kts 154°
2026-04-24 21:39 52.44630 -5.68421 19205 ft 233 kts 154°
2026-04-24 21:39 52.43189 -5.67171 19200 ft 236 kts 154°
2026-04-24 21:39 52.41733 -5.65908 19214 ft 239 kts 154°
2026-04-24 21:39 52.40254 -5.64625 19215 ft 241 kts 154°
2026-04-24 21:40 52.38762 -5.63335 19211 ft 243 kts 154°
2026-04-24 21:40 52.37260 -5.62036 19210 ft 245 kts 154°
2026-04-24 21:40 52.35747 -5.60730 19209 ft 247 kts 154°
2026-04-24 21:40 52.34225 -5.59417 19211 ft 248 kts 154°
2026-04-24 21:41 52.32697 -5.58100 19209 ft 249 kts 154°
2026-04-24 21:41 52.31165 -5.56784 19211 ft 250 kts 154°
2026-04-24 21:41 52.29621 -5.55456 19211 ft 250 kts 154°
2026-04-24 21:41 52.28077 -5.54127 19211 ft 251 kts 154°
2026-04-24 21:42 52.26531 -5.52798 19210 ft 251 kts 154°
2026-04-24 21:42 52.24980 -5.51465 19212 ft 252 kts 154°
2026-04-24 21:42 52.23426 -5.50137 19210 ft 252 kts 154°
2026-04-24 21:42 52.21875 -5.48808 19211 ft 252 kts 154°
2026-04-24 21:43 52.20318 -5.47472 19211 ft 253 kts 154°
2026-04-24 21:43 52.18764 -5.46142 19212 ft 253 kts 154°
2026-04-24 21:43 52.17205 -5.44808 19212 ft 253 kts 154°
2026-04-24 21:43 52.15640 -5.43473 19205 ft 253 kts 154°
2026-04-24 21:44 52.14088 -5.42154 19210 ft 253 kts 154°
2026-04-24 21:44 52.12526 -5.40818 19211 ft 253 kts 154°
2026-04-24 21:44 52.10967 -5.39485 19209 ft 253 kts 154°
2026-04-24 21:44 52.09406 -5.38160 19211 ft 253 kts 154°
2026-04-24 21:45 52.07845 -5.36831 19211 ft 253 kts 154°
2026-04-24 21:45 52.06283 -5.35502 19211 ft 253 kts 154°
2026-04-24 21:45 52.04722 -5.34176 19210 ft 253 kts 154°
2026-04-24 21:45 52.03160 -5.32848 19211 ft 253 kts 154°
2026-04-24 21:46 52.01598 -5.31525 19211 ft 253 kts 154°
2026-04-24 21:46 52.00035 -5.30201 19212 ft 253 kts 154°
2026-04-24 21:46 51.98999 -5.29322 19211 ft 253 kts 154°
2026-04-24 21:46 51.96928 -5.27571 19212 ft 253 kts 154°
2026-04-24 21:47 51.95364 -5.26249 19211 ft 253 kts 154°
2026-04-24 21:47 51.94309 -5.25353 19211 ft 253 kts 154°
2026-04-24 21:47 51.92747 -5.24031 19210 ft 253 kts 154°
2026-04-24 21:47 51.91187 -5.22697 19216 ft 253 kts 152°
2026-04-24 21:48 51.89742 -5.21050 19213 ft 254 kts 143°
2026-04-24 21:48 51.88393 -5.19197 19209 ft 255 kts 141°
2026-04-24 21:48 51.87051 -5.17322 19208 ft 255 kts 141°
2026-04-24 21:48 51.85687 -5.15491 19208 ft 255 kts 143°
2026-04-24 21:49 51.84301 -5.13698 19206 ft 255 kts 143°
2026-04-24 21:49 51.82916 -5.11915 19207 ft 255 kts 143°
2026-04-24 21:49 51.81529 -5.10131 19215 ft 255 kts 143°
2026-04-24 21:49 51.80139 -5.08343 19206 ft 255 kts 143°
2026-04-24 21:50 51.78748 -5.06556 19209 ft 256 kts 143°
2026-04-24 21:50 51.77364 -5.04779 19204 ft 256 kts 143°
2026-04-24 21:50 51.75967 -5.02985 19204 ft 255 kts 144°
2026-04-24 21:50 51.74577 -5.01208 19213 ft 255 kts 143°
2026-04-24 21:51 51.73186 -4.99427 19205 ft 255 kts 143°
2026-04-24 21:51 51.71795 -4.97648 19207 ft 256 kts 143°
2026-04-24 21:51 51.70420 -4.95889 19210 ft 255 kts 144°
2026-04-24 21:51 51.69028 -4.94109 19209 ft 255 kts 144°
2026-04-24 21:52 51.67638 -4.92334 19209 ft 255 kts 144°
2026-04-24 21:52 51.66246 -4.90559 19207 ft 255 kts 143°
2026-04-24 21:52 51.64854 -4.88785 19211 ft 255 kts 144°
2026-04-24 21:52 51.63466 -4.87016 19209 ft 254 kts 144°
2026-04-24 21:53 51.62075 -4.85250 19207 ft 254 kts 144°
2026-04-24 21:53 51.60688 -4.83485 19206 ft 254 kts 144°
2026-04-24 21:53 51.59302 -4.81724 19205 ft 254 kts 144°
2026-04-24 21:53 51.57910 -4.79962 19208 ft 255 kts 144°
2026-04-24 21:54 51.56520 -4.78199 19206 ft 255 kts 144°
2026-04-24 21:54 51.55128 -4.76434 19208 ft 255 kts 144°
2026-04-24 21:54 51.53733 -4.74667 19208 ft 255 kts 144°
2026-04-24 21:54 51.52338 -4.72900 19209 ft 255 kts 144°
2026-04-24 21:55 51.50939 -4.71135 19209 ft 256 kts 144°
2026-04-24 21:55 51.49542 -4.69367 19209 ft 256 kts 144°
2026-04-24 21:55 51.48142 -4.67603 19208 ft 256 kts 144°
2026-04-24 21:55 51.46743 -4.65841 19207 ft 256 kts 144°
2026-04-24 21:56 51.45347 -4.64078 19207 ft 256 kts 144°
2026-04-24 21:56 51.43945 -4.62314 19207 ft 256 kts 144°
2026-04-24 21:56 51.42545 -4.60551 19208 ft 256 kts 144°
2026-04-24 21:56 51.41147 -4.58793 19211 ft 256 kts 144°
2026-04-24 21:57 51.39746 -4.57036 19211 ft 256 kts 144°
2026-04-24 21:57 51.38348 -4.55279 19211 ft 256 kts 144°
2026-04-24 21:57 51.36949 -4.53527 19211 ft 256 kts 144°
2026-04-24 21:57 51.35549 -4.51771 19212 ft 256 kts 144°
2026-04-24 21:58 51.34151 -4.50020 19211 ft 256 kts 144°
2026-04-24 21:58 51.32749 -4.48267 19211 ft 256 kts 144°
2026-04-24 21:58 51.31348 -4.46513 19211 ft 256 kts 144°
2026-04-24 21:58 51.29947 -4.44767 19210 ft 256 kts 144°
2026-04-24 21:59 51.28548 -4.43020 19210 ft 256 kts 144°
2026-04-24 21:59 51.27145 -4.41269 19211 ft 256 kts 144°
2026-04-24 21:59 51.25745 -4.39526 19214 ft 255 kts 144°
2026-04-24 21:59 51.24343 -4.37778 19212 ft 255 kts 144°
2026-04-24 22:00 51.22943 -4.36039 19215 ft 255 kts 144°
2026-04-24 22:00 51.21545 -4.34297 19217 ft 255 kts 144°
2026-04-24 22:00 51.20164 -4.32584 19218 ft 255 kts 144°
2026-04-24 22:00 51.18764 -4.30847 19219 ft 255 kts 144°
2026-04-24 22:01 51.17368 -4.29112 19219 ft 255 kts 144°
2026-04-24 22:01 51.15966 -4.27379 19217 ft 255 kts 144°
2026-04-24 22:01 51.14566 -4.25647 19213 ft 255 kts 145°
2026-04-24 22:01 51.13161 -4.23915 19222 ft 257 kts 145°
2026-04-24 22:02 51.11748 -4.22167 19218 ft 258 kts 144°
2026-04-24 22:02 51.10333 -4.20414 19215 ft 258 kts 144°
2026-04-24 22:02 51.08912 -4.18659 19214 ft 258 kts 144°
2026-04-24 22:02 51.07492 -4.16907 19216 ft 259 kts 144°
2026-04-24 22:03 51.06070 -4.15155 19219 ft 259 kts 144°
2026-04-24 22:03 51.04648 -4.13405 19216 ft 259 kts 145°
2026-04-24 22:03 51.03222 -4.11651 19221 ft 259 kts 144°
2026-04-24 22:03 51.01796 -4.09898 19221 ft 259 kts 145°
2026-04-24 22:04 51.00368 -4.08143 19216 ft 259 kts 145°
2026-04-24 22:04 50.98941 -4.06392 19218 ft 259 kts 145°
2026-04-24 22:04 50.97518 -4.04644 19224 ft 259 kts 145°
2026-04-24 22:04 50.96091 -4.02897 19225 ft 259 kts 145°
2026-04-24 22:05 50.94663 -4.01148 19220 ft 259 kts 145°
2026-04-24 22:05 50.93235 -3.99402 19222 ft 259 kts 145°
2026-04-24 22:05 50.91806 -3.97656 19225 ft 259 kts 145°
2026-04-24 22:05 50.90378 -3.95911 19219 ft 259 kts 145°
2026-04-24 22:06 50.88950 -3.94167 19230 ft 260 kts 145°
2026-04-24 22:06 50.87516 -3.92420 19231 ft 260 kts 145°
2026-04-24 22:06 50.86082 -3.90672 19231 ft 260 kts 145°
2026-04-24 22:06 50.84646 -3.88922 19229 ft 260 kts 145°
2026-04-24 22:07 50.83209 -3.87176 19229 ft 260 kts 145°
2026-04-24 22:07 50.81773 -3.85429 19233 ft 260 kts 145°
2026-04-24 22:07 50.80336 -3.83687 19226 ft 260 kts 145°
2026-04-24 22:07 50.78903 -3.81945 19227 ft 260 kts 145°
2026-04-24 22:08 50.77473 -3.80207 19221 ft 259 kts 145°
2026-04-24 22:08 50.76042 -3.78476 19225 ft 259 kts 145°
2026-04-24 22:08 50.74582 -3.76854 19225 ft 254 kts 153°
2026-04-24 22:08 50.73019 -3.75544 19231 ft 254 kts 155°
2026-04-24 22:09 50.71440 -3.74279 19235 ft 255 kts 155°
2026-04-24 22:09 50.69881 -3.73020 19231 ft 255 kts 155°
2026-04-24 22:09 50.68280 -3.71727 19229 ft 256 kts 155°
2026-04-24 22:09 50.66717 -3.70462 19234 ft 256 kts 155°
2026-04-24 22:10 50.65132 -3.69177 19237 ft 257 kts 155°
2026-04-24 22:10 50.63541 -3.67887 19237 ft 257 kts 155°
2026-04-24 22:10 50.61945 -3.66596 19230 ft 258 kts 155°
2026-04-24 22:10 50.60349 -3.65306 19234 ft 258 kts 155°
2026-04-24 22:11 50.58749 -3.64018 19229 ft 258 kts 155°
2026-04-24 22:11 50.57149 -3.62726 19239 ft 258 kts 155°
2026-04-24 22:11 50.55547 -3.61432 19233 ft 259 kts 155°
2026-04-24 22:11 50.53948 -3.60145 19225 ft 259 kts 155°
2026-04-24 22:12 50.52344 -3.58852 19230 ft 259 kts 155°
2026-04-24 22:12 50.50744 -3.57563 19236 ft 259 kts 155°
2026-04-24 22:12 50.49139 -3.56276 19226 ft 259 kts 155°
2026-04-24 22:12 50.47537 -3.54988 19228 ft 258 kts 155°
2026-04-24 22:13 50.45939 -3.53710 19234 ft 258 kts 155°
2026-04-24 22:13 50.44338 -3.52426 19221 ft 258 kts 155°
2026-04-24 22:13 50.42740 -3.51142 19222 ft 258 kts 155°
2026-04-24 22:13 50.41145 -3.49867 19222 ft 257 kts 155°
2026-04-24 22:14 50.39551 -3.48592 19227 ft 257 kts 155°
2026-04-24 22:14 50.37960 -3.47318 19224 ft 257 kts 155°
2026-04-24 22:14 50.36365 -3.46045 19218 ft 257 kts 155°
2026-04-24 22:14 50.34776 -3.44776 19218 ft 256 kts 155°
2026-04-24 22:15 50.33187 -3.43510 19220 ft 256 kts 155°
2026-04-24 22:15 50.31599 -3.42244 19218 ft 256 kts 155°
2026-04-24 22:15 50.30012 -3.40978 19219 ft 256 kts 155°
2026-04-24 22:15 50.28429 -3.39720 19218 ft 256 kts 155°
2026-04-24 22:16 50.26842 -3.38458 19210 ft 255 kts 155°
2026-04-24 22:16 50.25260 -3.37200 19210 ft 255 kts 155°
2026-04-24 22:16 50.23677 -3.35945 19211 ft 255 kts 155°
2026-04-24 22:16 50.22095 -3.34689 19211 ft 255 kts 155°
2026-04-24 22:17 50.20511 -3.33434 19211 ft 255 kts 155°
2026-04-24 22:17 50.18947 -3.32195 19207 ft 255 kts 155°
2026-04-24 22:17 50.17366 -3.30942 19207 ft 255 kts 155°
2026-04-24 22:17 50.15784 -3.29693 19209 ft 255 kts 155°
2026-04-24 22:18 50.14205 -3.28443 19208 ft 255 kts 155°
2026-04-24 22:18 50.12626 -3.27196 19209 ft 254 kts 156°
2026-04-24 22:18 50.11049 -3.25950 19207 ft 254 kts 156°
2026-04-24 22:18 50.09467 -3.24706 19009 ft 256 kts 156°
2026-04-24 22:19 50.07870 -3.23457 18733 ft 258 kts 156°
2026-04-24 22:19 50.06259 -3.22188 18399 ft 262 kts 156°
2026-04-24 22:19 50.04623 -3.20893 17993 ft 266 kts 156°
2026-04-24 22:19 50.02965 -3.19585 17600 ft 269 kts 156°
2026-04-24 22:20 50.01292 -3.18264 17097 ft 270 kts 157°
2026-04-24 22:20 49.99623 -3.16982 16628 ft 265 kts 158°
2026-04-24 22:20 49.97937 -3.15892 16177 ft 261 kts 161°
2026-04-24 22:20 49.96240 -3.14910 15755 ft 259 kts 162°
2026-04-24 22:21 49.94551 -3.13940 15365 ft 259 kts 161°
2026-04-24 22:21 49.92868 -3.12928 14960 ft 260 kts 160°
2026-04-24 22:21 49.91190 -3.11897 14543 ft 260 kts 160°
2026-04-24 22:21 49.89503 -3.10855 14142 ft 261 kts 160°
2026-04-24 22:22 49.87823 -3.09815 13714 ft 260 kts 160°
2026-04-24 22:22 49.86145 -3.08781 13271 ft 259 kts 160°
2026-04-24 22:22 49.84469 -3.07748 12823 ft 259 kts 159°
2026-04-24 22:22 49.82797 -3.06718 12382 ft 258 kts 159°
2026-04-24 22:23 49.81130 -3.05692 11953 ft 258 kts 159°
2026-04-24 22:23 49.79465 -3.04667 11528 ft 257 kts 159°
2026-04-24 22:23 49.77810 -3.03649 11142 ft 256 kts 159°
2026-04-24 22:23 49.76161 -3.02634 10745 ft 255 kts 158°
2026-04-24 22:24 49.74514 -3.01623 10350 ft 254 kts 158°
2026-04-24 22:24 49.72874 -3.00619 9963 ft 253 kts 158°
2026-04-24 22:24 49.71240 -2.99619 9537 ft 252 kts 158°
2026-04-24 22:24 49.69614 -2.98622 9100 ft 252 kts 158°
2026-04-24 22:25 49.67986 -2.97621 8669 ft 252 kts 158°
2026-04-24 22:25 49.66353 -2.96626 8256 ft 251 kts 158°
2026-04-24 22:25 49.64767 -2.95653 7862 ft 247 kts 158°
2026-04-24 22:25 49.63184 -2.94687 7465 ft 243 kts 158°
2026-04-24 22:26 49.61617 -2.93732 7075 ft 240 kts 158°
2026-04-24 22:26 49.60076 -2.92788 6693 ft 237 kts 158°
2026-04-24 22:26 49.58548 -2.91856 6318 ft 234 kts 158°
2026-04-24 22:26 49.57041 -2.90936 5956 ft 231 kts 159°
2026-04-24 22:27 49.55553 -2.90029 5598 ft 229 kts 159°
2026-04-24 22:27 49.54090 -2.89266 5244 ft 210 kts 173°
2026-04-24 22:27 49.52704 -2.89165 4898 ft 193 kts 179°
2026-04-24 22:27 49.51364 -2.89099 4538 ft 196 kts 179°
2026-04-24 22:28 49.49971 -2.89040 4191 ft 203 kts 179°
2026-04-24 22:28 49.48544 -2.89002 3838 ft 207 kts 180°
2026-04-24 22:28 49.47101 -2.88982 3495 ft 208 kts 180°
2026-04-24 22:28 49.45705 -2.88976 3205 ft 194 kts 179°
2026-04-24 22:29 49.43320 -2.87813 3037 ft 185 kts 133°
2026-04-24 22:29 49.42862 -2.86040 3005 ft 174 kts 98°
2026-04-24 22:29 49.42787 -2.84221 2994 ft 171 kts 92°
2026-04-24 22:30 49.42845 -2.82396 2952 ft 172 kts 88°
2026-04-24 22:30 49.42938 -2.80561 2787 ft 172 kts 89°
2026-04-24 22:30 49.42994 -2.78784 2575 ft 159 kts 93°
2026-04-24 22:30 49.43022 -2.77133 2354 ft 150 kts 91°
2026-04-24 22:31 49.43068 -2.75606 2168 ft 136 kts 90°
2026-04-24 22:31 49.43118 -2.74193 2005 ft 132 kts 92°
2026-04-24 22:31 49.43136 -2.73256 1876 ft 132 kts 91°
2026-04-24 22:31 49.43169 -2.71461 1643 ft 127 kts 90°
2026-04-24 22:32 49.43218 -2.70152 1477 ft 118 kts 90°
2026-04-24 22:32 49.43261 -2.68928 1324 ft 112 kts 90°
2026-04-24 22:32 49.43293 -2.67747 1176 ft 108 kts 88°
2026-04-24 22:32 49.43328 -2.66600 1043 ft 108 kts 89°
2026-04-24 22:33 49.43359 -2.65461 899 ft 106 kts 88°
2026-04-24 22:33 49.43376 -2.64713 799 ft 105 kts 89°
2026-04-24 22:33 49.43407 -2.63600 635 ft 105 kts 86°
2026-04-24 22:33 49.43446 -2.62149 453 ft 101 kts 87°
2026-04-24 22:34 49.43473 -2.61087 318 ft 98 kts 88°
2026-04-24 22:34 49.43498 -2.60179 310 ft 72 kts 88°
2026-04-24 22:34 49.43508 -2.59793 322 ft 35 kts 88°
2026-04-24 22:34 49.43518 -2.59450 330 ft 16 kts 88°
2026-04-24 22:35 49.43521 -2.59322 332 ft 15 kts 88°
2026-04-24 22:35 49.43514 -2.59225 331 ft 11 kts 124°
2026-04-24 22:35 49.43446 -2.59197 330 ft 11 kts 178°
2026-04-24 22:35 49.43380 -2.59230 327 ft 11 kts 233°
2026-04-24 22:36 49.43369 -2.59372 330 ft 15 kts 267°
2026-04-24 22:36 49.43364 -2.59553 327 ft 18 kts 268°
2026-04-24 22:36 49.43356 -2.59724 325 ft 10 kts 251°
2026-04-24 22:36 49.43304 -2.59746 324 ft 7 kts 178°
2026-04-24 22:37 49.43285 -2.59744 324 ft 0 kts 178°
2026-04-24 22:37 49.43284 -2.59744 324 ft 0 kts 178°